Regional Weather Roundup
Issued by NWS

Home | Current Version | Previous Version | Graphics & Text | Print | Product List | Glossary On
Versions: 1 2 3 4 5 6 7 8 9 10 11 12 13 14 15 16 17 18 19 20 21 22 23 24 25 26 27 28 29 30 31 32 33 34 35 36 37 38 39 40 41 42 43 44 45 46 47 48 49 50
000
ASUS43 KFSD 271502
RWRSD

WEATHER ROUNDUP FOR SOUTH DAKOTA
NATIONAL WEATHER SERVICE SIOUX FALLS SD
900 AM CST FRI FEB 27 2015

NOTE: "FAIR" INDICATES FEW OR NO CLOUDS BELOW 12,000 FEET WITH NO
SIGNIFICANT WEATHER AND/OR OBSTRUCTIONS TO VISIBILITY.


SDZ001>005-009-010-012>017-271600-
NORTHWEST AND NORTH CENTRAL SOUTH DAKOTA

CITY           SKY/WX    TMP DP  RH WIND       PRES   REMARKS
BUFFALO          N/A      0  -6  76 SE8       30.09F WCI -14
FAITH            N/A      3  -4  72 S14       30.28F WCI -15
MOBRIDGE       MOSUNNY   -3  -9  75 SE6       30.38F WCI -15
$$

SDZ012>016-024>037-041>051-057-063-072>074-271600-
SOUTHWEST AND SOUTH CENTRAL SOUTH DAKOTA

CITY           SKY/WX    TMP DP  RH WIND       PRES   REMARKS
RAPID CTY ARPT SUNNY      2  -4  76 SE13      30.21F WCI -15
PIERRE         SUNNY      2  -2  83 E3        30.44R
CUSTER         MOSUNNY    1  -4  79 CALM      29.99S
PHILIP         SUNNY      0  -6  76 CALM      30.36F
PINE RIDGE     SUNNY      7  -1  70 S16       30.23F WCI -11
WINNER         FAIR       6  -4  63 S9        30.43S WCI  -8
$$

SDZ004>011-016>023-039-040-271600-
NORTHEAST SOUTH DAKOTA

CITY           SKY/WX    TMP DP  RH WIND       PRES   REMARKS
ABERDEEN       SUNNY     -9 -16  71 S6        30.51R WCI -22
WATERTOWN      SUNNY     -6 -10  83 SW5       30.46R WCI -17
SISSETON         N/A      2  -7  66 W12       30.49R WCI -15
$$

SDZ017-020-022-023-036>040-048>070-271600-
SOUTHEAST SOUTH DAKOTA

CITY           SKY/WX    TMP DP  RH WIND       PRES   REMARKS
SIOUX FALLS    SUNNY     -1  -6  79 W3        30.54R
HURON          MOSUNNY   -9 -14  78 SE3       30.53R
MITCHELL       SUNNY      2  -4  76 SW3       30.55S
YANKTON        SUNNY      1  -2  85 CALM      30.59R
$$

ABBREVIATIONS USED IN REMARKS
   TC - TEMPERATURE IN CELSIUS
  WCI - WIND CHILL INDEX
   HX - HEAT INDEX
  VSB - VISIBILITY



USA.gov is the U.S. government's official web portal to all federal, state and local government web resources and services.